Regional Weather Roundup
Issued by NWS Northern Indiana

Home | Current Version | Previous Version | Text Only | Print | Product List | Glossary On
Versions: 1 2 3 4 5 6 7 8 9 10 11 12 13 14 15 16 17 18 19 20 21 22 23 24 25 26 27 28 29 30 31 32 33 34 35 36 37 38 39 40 41 42 43 44 45 46 47 48 49 50
963
ASUS43 KIWX 240610
RWRIWX

KIWX WEATHER ROUNDUP
NATIONAL WEATHER SERVICE NORTHERN INDIANA
200 AM EDT MON APR 24 2017

NOTE: "FAIR" INDICATES FEW OR NO CLOUDS BELOW 12,000 FEET WITH NO
SIGNIFICANT WEATHER AND/OR OBSTRUCTIONS TO VISIBILITY.

* THESE STATIONS ARE NOT UNDER NWS QUALITY CONTROL. THEY ALSO MAY NOT
  REPORT WEATHER SUCH AS PRECIPITATION OR FOG.

INZ001>027-240700-
NORTHERN INDIANA

CITY           SKY/WX    TMP DP  RH WIND       PRES   REMARKS
GARY*          CLEAR     45  42  87 N3        30.05F
VALPARAISO     CLEAR     50  29  44 NE3       30.03F
6HR MIN TEMP:  47; 6HR MAX TEMP:  63;

MICHIGAN CITY* CLEAR     39  34  81 CALM      30.03F
LAPORTE*       PTCLDY    42  32  66 CALM      30.04S
6HR MIN TEMP:  42; 6HR MAX TEMP:  60;

KNOX*          CLOUDY    43  14  31 NE3       30.03S
SOUTH BEND     PTCLDY    40  32  73 N3        30.04F
6HR MIN TEMP:  39; 6HR MAX TEMP:  61;

GOSHEN         CLEAR     47  35  63 NE3       30.03F
6HR MIN TEMP:  45; 6HR MAX TEMP:  65;

MONTICELLO*    CLEAR     52  32  47 NE5       30.01F
6HR MIN TEMP:  49; 6HR MAX TEMP:  67;

LOGANSPORT*    CLEAR     50  36  57 NE3       30.02S
ROCHESTER*     CLEAR     46  34  61 CALM      30.02F
WARSAW*        CLEAR     43  36  75 CALM      30.03F
ANGOLA*        CLEAR     45  45 100 CALM      30.03F
FORT WAYNE     PTCLDY    45  32  60 CALM      30.03S
6HR MIN TEMP:  45; 6HR MAX TEMP:  62;

HUNTINGTON*    CLEAR     48  29  47 E3        30.02S
6HR MIN TEMP:  44; 6HR MAX TEMP:  63;

PERU/GRISSOM   CLEAR     46  34  64 E5        30.00S
6HR MIN TEMP:  46; 6HR MAX TEMP:  63;

MARION*        CLEAR     50  28  43 E6        30.02R HAZE

$$
INZ028>050-240700-
CENTRAL INDIANA

CITY           SKY/WX    TMP DP  RH WIND       PRES   REMARKS
LAFAYETTE      CLEAR     45  39  79 E3        30.01S
6HR MIN TEMP:  44; 6HR MAX TEMP:  64;

KOKOMO*        CLEAR     48  33  56 CALM      30.02S
6HR MIN TEMP:  47; 6HR MAX TEMP:  63;

MUNCIE*        CLEAR     48  30  49 E5        30.00F
6HR MIN TEMP:  48; 6HR MAX TEMP:  66;

INDIANAPOLIS   CLEAR     51  32  48 NE9       29.98F
6HR MIN TEMP:  51; 6HR MAX TEMP:  67;


$$
MIZ043>046-050>051-056>058-064>065-071>073-077>080-240700-
SOUTHWEST LOWER MICHIGAN

CITY           SKY/WX    TMP DP  RH WIND       PRES   REMARKS
BATTLE CREEK   PTCLDY    47  36  65 E5        30.06R
6HR MIN TEMP:  46; 6HR MAX TEMP:  65;

BENTON HARBOR  CLEAR     39  32  76 CALM      30.04S
6HR MIN TEMP:  38; 6HR MAX TEMP:  59;

COLDWATER*     CLEAR     46  38  74 CALM      30.04F
6HR MIN TEMP:  44; 6HR MAX TEMP:  66;

HILLSDALE*     CLEAR     43  34  70 CALM      30.04S
HOLLAND        PTCLDY    46  35  65 N5        30.05S
6HR MIN TEMP:  43; 6HR MAX TEMP:  60;

GRAND RAPIDS   PTCLDY    46  41  82 E8        30.07R
6HR MIN TEMP:  46; 6HR MAX TEMP:  63;

KALAMAZOO      CLOUDY    47  33  58 CALM      30.05S
6HR MIN TEMP:  46; 6HR MAX TEMP:  67;

STURGIS*       CLEAR     49  32  52 E3        30.03F
6HR MIN TEMP:  46; 6HR MAX TEMP:  66;

THREE RIVERS*  FAIR      44  37  78 CALM      30.04F
6HR MIN TEMP:  42; 6HR MAX TEMP:  66;


$$
OHZ001>008-015>018-024>025-240700-
NORTHWEST OHIO

CITY           SKY/WX    TMP DP  RH WIND       PRES   REMARKS
WAUSEON*       FAIR      46  34  61 CALM      30.04F
DEFIANCE       CLEAR     42  36  79 CALM      30.04F
6HR MIN TEMP:  41; 6HR MAX TEMP:  62;

FINDLAY        CLEAR     46  30  53 SE3       30.03S
6HR MIN TEMP:  46; 6HR MAX TEMP:  61;

TOLEDO EXPRESS CLEAR     43  34  70 CALM      30.04F
6HR MIN TEMP:  42; 6HR MAX TEMP:  61;

TOLEDO METCALF CLEAR     48  36  63 E5        30.05F
6HR MIN TEMP:  44; 6HR MAX TEMP:  60;

LIMA           CLEAR     45  32  60 E7        30.02S
6HR MIN TEMP:  42; 6HR MAX TEMP:  62;


$$
AND FOR LAKE MICHIGAN COASTAL AND OPEN LAKE BUOY OBSERVATIONS

STATION/POSITION TEMP    WIND        PRES    VSBY  WAVE
                 AIR SEA DIR/SP/G                  HT/PER
                 (F)     (DEG/KT/KT) (MB)    (MI)  (FT/S)
CALUMET HARBOR           350/  6/  8 1016.9F
MICHIGAN CITY     51        CALM       N/A
BURNS HARBOR      49     340/  5/  7 1017.6S
SOUTH LAKE BUOY   40 40  360/  6/  6 1018.1          3/ 6
4 MI NW BRIDGMAN  52 51   30/  2/  4 1017.4          0

$$
&&




USA.gov is the U.S. government's official web portal to all federal, state and local government web resources and services.